Flag for Madagascar Weather past 2 weeks in Toamasina, Madagascar

Now
72 °F

Partly sunny.


Feels Like: 67 °F
Forecast: 62 / 80 °F
Wind: 7 mph from Southwest

Location: Tamatave

Current Time: Sep 3, 2015 at 8:29:32 AM

Latest Report: Sep 3, 2015 at 8:00 AM


Visibility: N/A

Pressure: 30.15 "Hg

Humidity: 94%

Dew point: 70 °F

Location of ToamasinaLocation

Historic Weather in Toamasina — Graph

°F

Toamasina temperature yesterday

Maximum temperature yesterday: 81 °F (at 11:00 AM)
Minimum temperature yesterday: 66 °F (at 6:00 AM)
Average temperature yesterday: 74 °F

Past Weeks' High & Low Weather Summary

 TemperatureHumidityPressure
High81 °F (Aug 21, 2:00 PM)100% (Aug 19, 7:00 AM)30.54 "Hg (Aug 19, 7:00 AM)
Low61 °F (Aug 19, 7:00 AM)58% (Aug 21, 2:00 PM)30.01 "Hg (Aug 19, 3:00 PM)
Average71 °F84%30.16 "Hg
* Reported Aug 19 7:00 AM — Sep 3 7:00 AM, Toamasina, Weather by CustomWeather, © 2015

Note: Actual official high and low records may vary slightly from our data, if they occured in-between our weather recording intervals... More about our weather records

Advertising

Toamasina weather history for previous 24 hours

 ConditionsComfort  
Time TempWeatherWind HumidityBarometerVisibility
7:00 AM
Thu, Sep 3
68 °FPartly sunny.5 mph100%30.15 "HgN/A
6:00 AM68 °FPartly sunny.No wind94%30.15 "HgN/A
5:00 AM68 °FScattered showers. Passing clouds.No wind94%30.12 "HgN/A
4:00 AM72 °FScattered showers. Partly cloudy.No wind83%30.12 "HgN/A
3:00 AM72 °FScattered showers. Partly cloudy.No wind83%30.12 "HgN/A
2:00 AM68 °FScattered showers. Partly cloudy.No wind94%30.15 "HgN/A
1:00 AM70 °FLight rain. Partly cloudy.No wind94%30.15 "Hg4 mi
12:00 AM70 °FLight rain. Partly cloudy.No wind94%30.15 "Hg4 mi
11:00 PM
Wed, Sep 2
70 °FLight rain. Partly cloudy.2 mph94%30.18 "Hg4 mi
10:00 PM72 °FScattered showers. Partly cloudy.7 mph83%30.18 "HgN/A
9:00 PM73 °FScattered showers. Partly cloudy.7 mph78%30.18 "HgN/A
8:00 PM73 °FScattered showers. Partly cloudy.7 mph74%30.15 "HgN/A
7:00 PM73 °FScattered showers. Partly cloudy.2 mph83%30.15 "HgN/A
6:00 PM75 °FLight rain. Partly cloudy.7 mph78%30.12 "HgN/A
5:00 PM77 °FBroken clouds.7 mph74%30.12 "HgN/A
4:00 PM77 °FBroken clouds.7 mph74%30.09 "HgN/A
3:00 PM79 °FBroken clouds.7 mph65%30.09 "HgN/A
2:00 PM79 °FBroken clouds.7 mph65%30.12 "HgN/A
1:00 PM79 °FBroken clouds.7 mph65%30.12 "HgN/A
12:00 PM79 °FBroken clouds.9 mph70%30.15 "HgN/A
11:00 AM81 °FScattered clouds.7 mph66%30.15 "HgN/A
10:00 AM79 °FScattered clouds.5 mph65%30.18 "HgN/A
9:00 AM77 °FPartly sunny.2 mph74%30.18 "HgN/A
8:00 AM75 °FScattered clouds.2 mph78%30.18 "HgN/A
Weather by CustomWeather, © 2015

See weather overviewHow to use our weather pages